Regional Weather Roundup
Issued by NWS Midland/Odessa, TX

Home | Current Version | Previous Version | Text Only | Print | Product List | Glossary On
Versions: 1 2 3 4 5 6 7 8 9 10 11 12 13 14 15 16 17 18 19 20 21 22 23 24 25 26 27 28 29 30 31 32 33 34 35 36 37 38 39 40 41 42 43 44 45 46 47 48 49 50
584
ASUS44 KMAF 192101
RWRMAF
MIDLAND AREA WEATHER ROUNDUP
NATIONAL WEATHER SERVICE MIDLAND TX
300 PM CST SUN FEB 19 2017

...IN SOUTHWEST TEXAS AND SOUTHEAST NEW MEXICO...

CITY           SKY/WX    TMP DP  RH WIND       PRES   REMARKS
ALPINE         CLOUDY    58  33  39 S12G20    29.95F
ANDREWS        LGT RAIN  62  38  40 SW20G28   29.86R
ARTESIA        CLOUDY    61  28  29 SW21G32   29.82F
BIG SPRING     CLOUDY    71  36  27 S15       29.86R
CARLSBAD       CLOUDY    63  26  24 W18G24    29.84S
DRYDEN           N/A     62  49  62 W15       29.87R
FORT STOCKTON  CLOUDY    58  46  64 S22G31    29.88F
GUAD PASS      CLOUDY    53  26  35 SW33G44   29.88F
HOBBS          SUNNY     59  28  31 SW15G21   29.86R
MARFA          CLOUDY    58  24  27 SW14G23   29.92F
MIDLAND AIRPK  LGT RAIN  65  37  35 SW17      29.89R
MIDLAND INTL   LGT RAIN  63  40  42 SW25G33   29.89R
ODESSA         LGT RAIN  60  43  53 S17       29.90R
PECOS          CLOUDY    68  26  20 W14       29.84F
PRESIDIO       FAIR      68  32  26 SE7       29.87F
SEMINOLE       CLOUDY    62  33  33 SW16      29.86R
SNYDER         SUNNY     72  41  32 W15       29.82R
WINK           CLOUDY    66  31  27 SW10      29.84S
$$
...OTHER STATIONS IN TEXAS...

CITY           SKY/WX    TMP DP  RH WIND       PRES   REMARKS
ABILENE        LGT RAIN  70  63  78 S8        29.82S
AMARILLO       PTSUNNY   67  37  33 S17G25    29.80S
AUSTIN         CLOUDY    80  66  62 S21G26    29.79F
BROWNSVILLE    MOSUNNY   84  72  67 SE25G35   29.73F
CORPUS CHRISTI CLOUDY    78  71  79 SE24G37   29.74F
DALLAS FTW     CLOUDY    76  66  71 SE17      29.84F
DEL RIO        CLOUDY    78  61  55 SW7       29.76F
EL PASO        PTSUNNY   57  26  30 W15G25    29.91S
HOUSTON INT    MOSUNNY   79  67  66 SE14      29.87F
LUBBOCK        CLOUDY    69  32  25 W14G23    29.80S
SAN ANGELO     PTSUNNY   75  57  53 W9        29.80S
SAN ANTONIO    PTSUNNY   79  65  62 SE18      29.78F
WACO           CLOUDY    80  66  62 SE17G25   29.81F
WICHITA FALLS  NOT AVBL
$$
...OTHER LOCATIONS IN NEW MEXICO...

CITY           SKY/WX    TMP DP  RH WIND       PRES   REMARKS
ALAMAGORDO     CLOUDY    54  28  37 W10       29.92S
ALBUQUERQUE    PTSUNNY   51  30  44 SW8       29.83F
CANNON AFB     CLOUDY    56  37  47 SW12      29.79F
CLOVIS         CLOUDY    57  39  51 SW8       29.80F
HOLLOMAN AFB   MOSUNNY   55  29  37 SW8       29.93F
ROSWELL        CLOUDY    61  25  25 S21         N/A
RUIDOSO        CLOUDY    45  21  39 SW23G30   29.90R WCI  36
SANTA FE       MOSUNNY   50  29  44 SW16G24   29.81F
TRUTH OR CONSE CLOUDY    53  31  42 S16G24    29.88F
TUCUMCARI      MOSUNNY   61  33  35 SW18G24   29.78F
$$




USA.gov is the U.S. government's official web portal to all federal, state and local government web resources and services.